This is the latest recevied weather packets stored in our database for station/object WD7OO. If no packets are shown the sender has not sent any weather packets the latest 1 day(s).
| Time | Temp. | Humidity | Pressure | Rain* | Wind** | Luminosity | Snow |
|---|---|---|---|---|---|---|---|
| 1836274651 | 22.78° C | 75% | 1019 hPa | 0 mm | 0 m/s | 0 W/m² | - |
| 1836274504 | 22.22° C | 75% | 1019.1 hPa | 0 mm | 0.45 m/s, 63° | 0 W/m² | - |
| 1836274349 | 22.78° C | 75% | 1019.1 hPa | 0 mm | 1.34 m/s, 250° | 0 W/m² | - |
| 1836274202 | 22.22° C | 75% | 1019 hPa | 0 mm | 0.89 m/s, 44° | 0 W/m² | - |
| 1836274047 | 22.78° C | 75% | 1018.9 hPa | 0 mm | 0.45 m/s, 358° | 0 W/m² | - |
| 1778052953 | 7.78° C | 75% | 1010.3 hPa | 0 mm | 0 m/s | 0 W/m² | - |
| 1778052650 | 7.22° C | 76% | 1010 hPa | 0 mm | 0 m/s | 0 W/m² | - |
| 1778052347 | 7.22° C | 79% | 1010.5 hPa | 0 mm | 0 m/s | 0 W/m² | - |
| 1778052045 | 7.22° C | 82% | 1010.5 hPa | 0 mm | 0 m/s | 0 W/m² | - |
| 1778051743 | 7.22° C | 86% | 1010.3 hPa | 0 mm | 0 m/s | 0 W/m² | - |
| 1778051440 | 7.22° C | 88% | 1010.3 hPa | 0 mm | 0 m/s | 0 W/m² | - |
| 1778051137 | 7.22° C | 90% | 1010.3 hPa | 0 mm | 0 m/s | 0 W/m² | - |
| 1778050834 | 7.22° C | 90% | 1010.3 hPa | 0 mm | 0 m/s | 0 W/m² | - |
| 1778050532 | 7.78° C | 90% | 1010.3 hPa | 0 mm | 0 m/s | 0 W/m² | - |
| 1778050228 | 7.78° C | 90% | 1010.3 hPa | 0 mm | 0 m/s | 0 W/m² | - |
| 1778049925 | 7.78° C | 90% | 1010.5 hPa | 0 mm | 0 m/s | 0 W/m² | - |
| 1778049620 | 7.78° C | 90% | 1010.4 hPa | 0 mm | 0 m/s | 0 W/m² | - |
| 1778049319 | 7.78° C | 90% | 1010.3 hPa | 0 mm | 0 m/s | 0 W/m² | - |
| 1778049016 | 7.78° C | 90% | 1010.5 hPa | 0 mm | 0 m/s | 0 W/m² | - |
| 1778048714 | 7.78° C | 90% | 1010.7 hPa | 0 mm | 0 m/s | 0 W/m² | - |
| 1778048411 | 7.78° C | 90% | 1010.7 hPa | 0 mm | 0 m/s | 0 W/m² | - |
| 1778048107 | 7.22° C | 91% | 1010.4 hPa | 0 mm | 0 m/s | 0 W/m² | - |
| 1778047805 | 7.78° C | 92% | 1010.5 hPa | 0 mm | 0 m/s | 0 W/m² | - |
| 1778047503 | 7.78° C | 92% | 1010.3 hPa | 0 mm | 0 m/s | 0 W/m² | - |
| 1778047199 | 7.78° C | 91% | 1010.3 hPa | 0 mm | 0 m/s | 0 W/m² | - |
* Rain latest hour (hover to see other rain measurements)
** Current wind speed in m/s (hover to see current wind gust speed)